sat.trackr.live / text

‹ back to catalog

STARLINK-5580

NORAD 55748 · 2023-028H

PAYLOAD ACTIVE UNKNOWN

§ Identity

Operator
Country
US
Launch date
2023-03-03
Launch site
AFWTR
Launch vehicle
Mass (kg)
RCS (m²)

Purposes: comms

External: N2YO · Heavens-Above · Gunter

§ Orbital elements

Epoch: 2026-05-25T03:50:07.314432Z

Period
96.11 min
Inclination
70.0009°
Eccentricity
0.0003014
Mean motion
14.98331016 rev/d
Perigee alt
570.0 km
Apogee alt
574.1 km
Semi-major
6,950.2 km
B*
5.0972e-5
RAAN
51.6906°
Arg perigee
268.2278°
Mean anomaly
91.8536°
Rev number
17,749

§ Raw data

STARLINK-55801 55748U 23028H   26145.15980688  .00000515  00000+0  50972-4 0  99942 55748  70.0009  51.6906 0003014 268.2278  91.8536 14.98331016177493

JSON: /api/v1/satellites/55748 · /tle

For live sub-satellite position, see the globe view (requires WebGL).

§ Visibility from observer

Set your observer location to see the next 7 days of passes ≥ 10°. The values pass through the URL so the page stays shareable.

No JS? Fill the form by hand. The geolocation button needs JavaScript.